Weather History for Macomb, IL

Change the Weather History Date:

Friday, May 11, 2012

  Actual Average (KBRL) Record (KBRL)
Temperature  
Mean Temperature 66 °F 62 °F  
Max Temperature 81 °F 73 °F 91 °F (2007)
Min Temperature 52 °F 51 °F 33 °F (1907)
Degree Days  
Heating Degree Days 0 5  
Month to date heating degree days 65  
Since 1 July heating degree days 5527  
Cooling Degree Days 2 2  
Month to date cooling degree days 15  
Year to date cooling degree days 35  
Growing Degree Days 16 (Base 50)    
Moisture  
Dew Point 49 °F    
Average Humidity 52    
Maximum Humidity 82    
Minimum Humidity 32    
Precipitation  
Precipitation 0.00 in 0.16 in 2.68 in (2002)
Month to date precipitation 1.76  
Year to date precipitation 11.17  
Sea Level Pressure  
Sea Level Pressure 30.10 in    
Wind  
Wind Speed 9 mph (South)    
Max Wind Speed 17 mph    
Max Gust Speed 21 mph    
Visibility 10 miles    
Events      
T = Trace of Precipitation, MM = Missing Value Source: NWS Daily Summary

Daily Weather History Graph

Daily Weather History Graph

Search for Another Location

Airport:

Trip Planner

Search our weather history database for the weather conditions in past years. The results will help you decide how hot, cold, wet, or windy it might be!

Date:

Astronomy

May. 11, 2012 Rise Set
Actual Time 5:49 AM CDT 8:09 PM CDT
Civil Twilight 5:18 AM CDT 8:39 PM CDT
Nautical Twilight 4:41 AM CDT 9:17 PM CDT
Astronomical Twilight 3:59 AM CDT 9:59 PM CDT
Moon 12:48 AM CDT (5/11) 11:22 AM CDT (5/11)
Length of Visible Light 15h 20m
Length of Day
14h 19m
Waning Gibbous, 63% of the Moon is Illuminated
May 11
Waning Gibbous
May 12
Last Quarter
May 20
New
May 28
First Quarter
Jun 4
Full

Hourly Weather History & Observations

Time (CDT) Temp. Dew Point Humidity Pressure Visibility Wind Dir Wind Speed Gust Speed Precip Events Conditions
12:15 AM 57.7 °F 46.9 °F 67% 30.03 in 10.0 mi SSE 6.9 mph - N/A   Clear
12:35 AM 57.6 °F 47.5 °F 69% 30.03 in 10.0 mi South 5.8 mph - N/A   Clear
12:55 AM 57.6 °F 47.5 °F 69% 30.04 in 10.0 mi South 5.8 mph - N/A   Clear
1:15 AM 57.6 °F 47.7 °F 70% 30.04 in 10.0 mi South 6.9 mph - N/A   Clear
1:35 AM 57.7 °F 47.7 °F 69% 30.04 in 10.0 mi South 8.1 mph - N/A   Clear
1:55 AM 58.1 °F 47.7 °F 68% 30.04 in 10.0 mi South 6.9 mph - N/A   Clear
2:15 AM 57.6 °F 47.7 °F 70% 30.04 in 10.0 mi South 6.9 mph - N/A   Clear
2:35 AM 57.6 °F 47.7 °F 70% 30.04 in 10.0 mi South 6.9 mph - N/A   Clear
2:55 AM 57.2 °F 47.5 °F 70% 30.04 in 10.0 mi South 6.9 mph - N/A   Clear
3:15 AM 55.8 °F 47.3 °F 73% 30.04 in 10.0 mi South 5.8 mph - N/A   Clear
3:35 AM 54.5 °F 46.8 °F 75% 30.05 in 10.0 mi SSE 5.8 mph - N/A   Clear
3:55 AM 54.3 °F 47.1 °F 77% 30.05 in 10.0 mi South 5.8 mph - N/A   Clear
4:15 AM 54.9 °F 47.3 °F 76% 30.05 in 10.0 mi South 5.8 mph - N/A   Clear
4:35 AM 53.6 °F 46.6 °F 77% 30.05 in 10.0 mi South 5.8 mph - N/A   Clear
4:55 AM 53.8 °F 46.8 °F 77% 30.06 in 10.0 mi South 5.8 mph - N/A   Clear
5:15 AM 53.6 °F 46.4 °F 77% 30.08 in 10.0 mi South 4.6 mph - N/A   Clear
5:35 AM 52.7 °F 46.4 °F 79% 30.08 in 10.0 mi SE 3.5 mph - N/A   Clear
5:55 AM 52.5 °F 46.6 °F 80% 30.09 in 10.0 mi SSE 3.5 mph - N/A   Clear
6:15 AM 52.2 °F 46.9 °F 82% 30.09 in 10.0 mi Calm Calm - N/A   Clear
6:35 AM 53.6 °F 47.5 °F 80% 30.10 in 10.0 mi SE 3.5 mph - N/A   Clear
6:55 AM 56.1 °F 48.6 °F 76% 30.10 in 10.0 mi SE 4.6 mph - N/A   Clear
7:15 AM 58.8 °F 48.0 °F 67% 30.11 in 10.0 mi SSE 4.6 mph - N/A   Clear
7:35 AM 60.8 °F 48.2 °F 63% 30.12 in 10.0 mi South 6.9 mph - N/A   Clear
7:55 AM 63.1 °F 47.5 °F 57% 30.12 in 10.0 mi South 9.2 mph - N/A   Clear
8:15 AM 65.7 °F 46.0 °F 49% 30.11 in 10.0 mi South 12.7 mph - N/A   Clear
8:35 AM 67.5 °F 45.0 °F 44% 30.12 in 10.0 mi South 15.0 mph 19.6 mph N/A   Clear
8:55 AM 69.1 °F 44.6 °F 41% 30.11 in 10.0 mi South 12.7 mph 16.1 mph N/A   Clear
9:15 AM 69.8 °F 44.8 °F 41% 30.11 in 10.0 mi South 13.8 mph - N/A   Clear
9:35 AM 71.4 °F 45.7 °F 40% 30.12 in 10.0 mi South 13.8 mph 18.4 mph N/A   Clear
9:55 AM 72.7 °F 46.0 °F 39% 30.12 in 10.0 mi SSW 13.8 mph - N/A   Scattered Clouds
10:15 AM 73.6 °F 46.2 °F 38% 30.11 in 10.0 mi South 13.8 mph - N/A   Mostly Cloudy
10:35 AM 74.5 °F 46.2 °F 37% 30.11 in 10.0 mi South 15.0 mph 19.6 mph N/A   Overcast
10:55 AM 75.6 °F 46.0 °F 35% 30.12 in 10.0 mi South 13.8 mph - N/A   Mostly Cloudy
11:15 AM 76.1 °F 46.6 °F 35% 30.12 in 10.0 mi South 13.8 mph 20.7 mph N/A   Mostly Cloudy
11:35 AM 76.5 °F 46.6 °F 35% 30.11 in 10.0 mi South 15.0 mph - N/A   Mostly Cloudy
11:55 AM 76.5 °F 47.5 °F 36% 30.12 in 10.0 mi SW 17.3 mph - N/A   Overcast
12:15 PM 77.4 °F 46.9 °F 34% 30.11 in 10.0 mi SSW 16.1 mph 20.7 mph N/A   Mostly Cloudy
12:35 PM 77.9 °F 46.6 °F 33% 30.11 in 10.0 mi SSW 12.7 mph 18.4 mph N/A   Scattered Clouds
12:55 PM 77.7 °F 47.1 °F 34% 30.12 in 10.0 mi South 12.7 mph 17.3 mph N/A   Mostly Cloudy
1:15 PM 77.9 °F 46.9 °F 33% 30.11 in 10.0 mi South 10.4 mph - N/A   Mostly Cloudy
1:35 PM 78.8 °F 48.2 °F 34% 30.10 in 10.0 mi South 12.7 mph - N/A   Scattered Clouds
1:55 PM 79.0 °F 48.2 °F 34% 30.10 in 10.0 mi South 11.5 mph 17.3 mph N/A   Clear
2:15 PM 80.1 °F 47.8 °F 32% 30.10 in 10.0 mi South 12.7 mph 17.3 mph N/A   Clear
2:35 PM 80.6 °F 48.2 °F 32% 30.10 in 10.0 mi SSW 12.7 mph 19.6 mph N/A   Clear
2:55 PM 81.1 °F 48.6 °F 32% 30.10 in 10.0 mi South 15.0 mph 19.6 mph N/A   Clear
3:15 PM 80.8 °F 48.6 °F 32% 30.10 in 10.0 mi SSW 13.8 mph 20.7 mph N/A   Clear
3:35 PM 80.4 °F 48.6 °F 33% 30.09 in 10.0 mi South 11.5 mph 17.3 mph N/A   Clear
3:55 PM 81.5 °F 48.9 °F 32% 30.09 in 10.0 mi South 11.5 mph 16.1 mph N/A   Clear
4:15 PM 81.0 °F 49.1 °F 33% 30.09 in 10.0 mi SSW 12.7 mph - N/A   Clear
4:35 PM 80.4 °F 49.8 °F 34% 30.09 in 10.0 mi SSW 12.7 mph - N/A   Clear
4:55 PM 79.9 °F 49.5 °F 34% 30.09 in 10.0 mi SSW 12.7 mph - N/A   Clear
5:15 PM 79.2 °F 50.0 °F 36% 30.09 in 10.0 mi SSW 12.7 mph - N/A   Clear
5:35 PM 79.0 °F 50.2 °F 36% 30.10 in 10.0 mi South 11.5 mph - N/A   Clear
5:55 PM 79.0 °F 50.7 °F 37% 30.10 in 10.0 mi SSW 10.4 mph - N/A   Clear
6:15 PM 79.2 °F 50.9 °F 37% 30.09 in 10.0 mi South 11.5 mph - N/A   Clear
6:35 PM 78.8 °F 51.8 °F 39% 30.09 in 10.0 mi SSW 13.8 mph - N/A   Clear
6:55 PM 78.1 °F 51.3 °F 39% 30.09 in 10.0 mi South 12.7 mph - N/A   Clear
7:15 PM 76.5 °F 52.0 °F 42% 30.09 in 10.0 mi SSW 12.7 mph 17.3 mph N/A   Clear
7:35 PM 75.4 °F 52.2 °F 44% 30.10 in 10.0 mi SSW 6.9 mph - N/A   Clear
7:55 PM 74.3 °F 52.7 °F 47% 30.11 in 10.0 mi SSW 9.2 mph - N/A   Clear
8:15 PM 73.0 °F 52.9 °F 49% 30.11 in 10.0 mi SSW 8.1 mph - N/A   Clear
8:35 PM 71.6 °F 53.6 °F 53% 30.12 in 10.0 mi South 8.1 mph - N/A   Scattered Clouds
8:55 PM 71.8 °F 53.1 °F 52% 30.13 in 10.0 mi SSW 8.1 mph - N/A   Mostly Cloudy
9:15 PM 71.2 °F 52.7 °F 52% 30.13 in 10.0 mi South 6.9 mph - N/A   Overcast
9:35 PM 70.2 °F 53.2 °F 55% 30.13 in 10.0 mi South 6.9 mph - N/A   Scattered Clouds
9:55 PM 69.1 °F 53.2 °F 57% 30.13 in 10.0 mi South 6.9 mph - N/A   Mostly Cloudy
10:15 PM 68.2 °F 53.6 °F 60% 30.13 in 10.0 mi South 6.9 mph - N/A   Mostly Cloudy
10:35 PM 67.6 °F 53.6 °F 61% 30.14 in 10.0 mi South 6.9 mph - N/A   Mostly Cloudy
10:55 PM 67.1 °F 53.6 °F 62% 30.14 in 10.0 mi SSW 6.9 mph - N/A   Scattered Clouds
11:15 PM 67.6 °F 53.6 °F 61% 30.14 in 10.0 mi South 8.1 mph - N/A   Mostly Cloudy
11:35 PM 68.0 °F 53.6 °F 60% 30.14 in 10.0 mi SSW 6.9 mph - N/A   Overcast
11:55 PM 67.3 °F 53.6 °F 61% 30.15 in 10.0 mi SSW 8.1 mph - N/A   Mostly Cloudy